sat.trackr.live / text

‹ back to catalog

STARLINK-34434

NORAD 64422 · 2025-129L

PAYLOAD ACTIVE UNKNOWN

§ Identity

Operator
Country
US
Launch date
2025-06-17
Launch site
AFWTR
Launch vehicle
Mass (kg)
RCS (m²)

Purposes: comms

External: N2YO · Heavens-Above · Gunter

§ Orbital elements

Epoch: 2026-05-25T00:01:58.802592Z

Period
96.11 min
Inclination
70.0008°
Eccentricity
0.0003887
Mean motion
14.98333587 rev/d
Perigee alt
569.3 km
Apogee alt
574.7 km
Semi-major
6,950.2 km
B*
1.7549e-4
RAAN
242.2226°
Arg perigee
269.1033°
Mean anomaly
90.9681°
Rev number
5,271

§ Raw data

STARLINK-344341 64422U 25129L   26145.00137503  .00002002  00000+0  17549-3 0  99962 64422  70.0008 242.2226 0003887 269.1033  90.9681 14.98333587 52714

JSON: /api/v1/satellites/64422 · /tle

For live sub-satellite position, see the globe view (requires WebGL).

§ Visibility from observer

Set your observer location to see the next 7 days of passes ≥ 10°. The values pass through the URL so the page stays shareable.

No JS? Fill the form by hand. The geolocation button needs JavaScript.